Volver al catálogo

COSMOS 1823 DEB

ActivoLEO
NORAD 39828·DEBRIS·🇷🇺 Russia

Lanzado Feb 20, 1987 desde Plesetsk Cosmodrome

Loading…

Próximos Pases (próximas 24 horas)

TLE

EnvejeciendoSource: Space-Track

Época: Sep 9, 2026, 18:45 UTC

1 39828U 87020FC  26252.78162323  .00001655  00000-0  16035-1 0  9999
2 39828  74.2278 272.8644 0084781 210.9198 148.6830 12.19612364232016

Sigue COSMOS 1823 DEB en tiempo real con AllMySat

Download on the App Store